Tracking 30306 objects as of 22-Apr-2025
HD Live streaming from Space Station
objects crossing your sky now

STARLINK-33718

Track STARLINK-33718 now!
10-day predictions
STARLINK-33718 is classified as:


NORAD ID: 63476
Int'l Code: 2025-070S
Perigee: 350.2 km
Apogee: 352.2 km
Inclination: 43.0 °
Period: 91.4 minutes
Semi major axis: 6722 km
RCS: Unknown
Launch date: April 6, 2025
Source: United States (US)
Launch site: AIR FORCE EASTERN TEST RANGE (AFETR)
Your satellite tracking list
Your tracking list is empty




NASA's NSSDC Master Catalog

Two Line Element Set (TLE):
1 63476U 25070S   25111.91668981 -.01170960  00000-0 -85146-2 0  9990
2 63476  42.9997 281.1093 0001515 279.0311 251.7786 15.75193592  3722
Source of the keplerian elements: AFSPC